Volver al catálogo

CZ-6A DEB

ActivoPO
NORAD 60798·DEBRIS·🇨🇳 China

Lanzado Aug 6, 2024 desde Taiyuan Satellite Launch Center

Loading…

Próximos Pases (próximas 24 horas)

TLE

ActualizadoSource: Space-Track

Época: Sep 14, 2026, 18:22 UTC

1 60798U 24140FZ  26257.76565472  .00000174  00000-0  84576-4 0  9991
2 60798  89.0440 269.9785 0073455 274.7102  84.5698 14.12807564107826

Sigue CZ-6A DEB en tiempo real con AllMySat

Download on the App Store